DW7589 Weather Reports


time (UTC)temp
C
wind
direction
speed
KPH
gust
KPH
rain 1hr
cm
rain 24hr
cm
rain mn
cm
humidity
%
barometer
mb
20260503025429 16 0 0.0 0.0 0.00 0.00 0.00 63 1020.1
20260503024429 16 0 0.0 0.0 0.00 0.00 0.00 60 1019.9
20260503023929 16 0 0.0 0.0 0.00 0.00 0.00 60 1019.9
20260503023428 17 0 0.0 0.0 0.00 0.00 0.00 59 1019.8
20260503022428 17 0 0.0 0.0 0.00 0.00 0.00 58 1019.8
20260503021929 17 0 0.0 0.0 0.00 0.00 0.00 55 1019.7
20260503021428 17 0 0.0 0.0 0.00 0.00 0.00 52 1019.7
20260503020929 17 0 0.0 0.0 0.00 0.00 0.00 52 1019.7
20260503020429 18 0 0.0 0.0 0.00 0.00 0.00 49 1019.7
20260503015929 18 0 0.0 0.0 0.00 0.00 0.00 49 1019.7
20260503015429 18 0 0.0 0.0 0.00 0.00 0.00 48 1019.5
20260503014929 18 0 0.0 0.0 0.00 0.00 0.00 48 1019.3
20260503014428 19 0 0.0 0.0 0.00 0.00 0.00 47 1019.4
20260503013929 20 0 0.0 0.0 0.00 0.00 0.00 46 1019.4
20260503013430 20 0 0.0 0.0 0.00 0.00 0.00 45 1019.4
20260503012930 20 0 0.0 0.0 0.00 0.00 0.00 44 1019.3
20260503012429 21 0 0.0 0.0 0.00 0.00 0.00 44 1019.3
20260503011929 21 0 0.0 0.0 0.00 0.00 0.00 44 1019.3
20260503011429 21 0 0.0 0.0 0.00 0.00 0.00 44 1019.3
20260503010429 22 0 0.0 0.0 0.00 0.00 0.00 43 1019.2
20260503005931 22 0 0.0 0.0 0.00 0.00 0.00 43 1019.3
20260503005429 22 0 0.0 0.0 0.00 0.00 0.00 43 1019.3
20260503004929 23 0 0.0 0.0 0.00 0.00 0.00 43 1019.3
20260503004428 23 0 0.0 0.0 0.00 0.00 0.00 42 1019.2
20260503003929 23 0 0.0 0.0 0.00 0.00 0.00 41 1019.2
20260503002929 24 0 0.0 0.0 0.00 0.00 0.00 43 1019.2
20260503001929 24 0 0.0 0.0 0.00 0.00 0.00 42 1019.1
20260503001428 24 0 0.0 0.0 0.00 0.00 0.00 43 1019.1
20260503000430 24 0 0.0 1.6 0.00 0.00 0.00 41 1019.1
20260502235929 24 0 0.0 3.2 0.00 0.00 0.00 38 1019.1
20260502235431 24 0 0.0 3.2 0.00 0.00 0.00 43 1019.1
20260502234929 24 0 0.0 3.2 0.00 0.00 0.00 43 1019.0
20260502234428 24 0 0.0 3.2 0.00 0.00 0.00 42 1019.1
20260502233929 24 6 1.6 8.0 0.00 0.00 0.00 42 1019.1
20260502233429 24 5 1.6 8.0 0.00 0.00 0.00 40 1019.1
20260502232428 25 0 0.0 4.8 0.00 0.00 0.00 41 1019.1
20260502231429 25 0 0.0 6.4 0.00 0.00 0.00 39 1019.0
20260502230429 24 0 0.0 4.8 0.00 0.00 0.00 40 1019.0
20260502225929 24 0 0.0 4.8 0.00 0.00 0.00 41 1019.0
20260502225430 25 0 0.0 1.6 0.00 0.00 0.00 40 1019.0
20260502224930 25 0 0.0 6.4 0.00 0.00 0.00 42 1019.1
20260502224429 25 5 1.6 6.4 0.00 0.00 0.00 43 1019.1
20260502223429 25 5 1.6 6.4 0.00 0.00 0.00 42 1019.2
20260502222929 25 6 1.6 9.7 0.00 0.00 0.00 41 1019.2
20260502222430 25 8 1.6 9.7 0.00 0.00 0.00 41 1019.3
20260502221930 25 10 1.6 8.0 0.00 0.00 0.00 42 1019.2
20260502221429 25 17 1.6 8.0 0.00 0.00 0.00 40 1019.2
20260502220929 24 13 1.6 6.4 0.00 0.00 0.00 43 1019.3
20260502215929 24 350 1.6 14.5 0.00 0.00 0.00 50 1019.3
20260502215430 24 3 3.2 14.5 0.00 0.00 0.00 42 1019.3
20260502214931 25 10 1.6 11.3 0.00 0.00 0.00 39 1019.4
20260502214430 25 1 1.6 6.4 0.00 0.00 0.00 41 1019.5
20260502213929 25 4 1.6 8.0 0.00 0.00 0.00 44 1019.5
20260502213429 25 9 1.6 8.0 0.00 0.00 0.00 43 1019.6
20260502212430 25 1 3.2 9.7 0.00 0.00 0.00 43 1019.6
20260502211930 25 359 1.6 9.7 0.00 0.00 0.00 46 1019.7
20260502210929 25 11 1.6 14.5 0.00 0.00 0.00 43 1019.9
20260502210430 24 8 1.6 14.5 0.00 0.00 0.00 46 1019.9
20260502205929 24 2 3.2 17.7 0.00 0.00 0.00 44 1020.0
20260502205429 24 359 3.2 17.7 0.00 0.00 0.00 44 1020.0
20260502204929 24 358 1.6 12.9 0.00 0.00 0.00 43 1020.1
20260502204429 24 358 3.2 12.9 0.00 0.00 0.00 46 1020.1
20260502203429 24 24 1.6 9.7 0.00 0.00 0.00 43 1020.1
20260502202429 23 14 3.2 12.9 0.00 0.00 0.00 44 1020.3
20260502201929 24 5 3.2 12.9 0.00 0.00 0.00 42 1020.2
20260502201431 24 9 1.6 12.9 0.00 0.00 0.00 43 1020.3
20260502200930 24 26 1.6 16.1 0.00 0.00 0.00 47 1020.4
20260502200429 24 22 1.6 16.1 0.00 0.00 0.00 47 1020.4
20260502195429 24 356 3.2 19.3 0.00 0.00 0.00 47 1020.4
20260502194429 24 9 1.6 9.7 0.00 0.00 0.00 43 1020.4
20260502193929 24 10 1.6 9.7 0.00 0.03 0.00 45 1020.4
20260502193430 24 353 1.6 8.0 0.00 0.05 0.00 45 1020.5
20260502192929 23 348 3.2 11.3 0.00 0.08 0.00 48 1020.5
20260502192430 23 8 3.2 12.9 0.00 0.08 0.00 46 1020.6
20260502191429 23 349 1.6 9.7 0.00 0.10 0.00 50 1020.6
20260502190929 23 354 1.6 11.3 0.00 0.10 0.00 50 1020.6
20260502190429 23 16 1.6 11.3 0.00 0.10 0.00 49 1020.7
20260502185930 23 18 1.6 8.0 0.00 0.10 0.00 45 1020.8
20260502185429 23 3 3.2 9.7 0.00 0.10 0.00 51 1020.8
20260502184930 22 5 3.2 16.1 0.00 0.13 0.00 47 1021.0
20260502184429 23 18 1.6 16.1 0.00 0.13 0.00 46 1021.1
20260502183930 23 7 1.6 4.8 0.00 0.13 0.00 49 1021.1
20260502183429 23 336 1.6 6.4 0.00 0.13 0.00 51 1021.2
20260502181429 22 18 1.6 8.0 0.00 0.15 0.00 49 1021.6
20260502180931 22 4 3.2 8.0 0.00 0.15 0.00 47 1021.7
20260502180430 22 357 3.2 12.9 0.00 0.15 0.00 48 1021.8
20260502170431 21 2 1.6 9.7 0.00 0.18 0.00 56 1022.4
20260502162929 20 18 1.6 8.0 0.00 0.20 0.00 59 1022.6
20260502162430 20 6 1.6 8.0 0.00 0.20 0.00 61 1022.6
20260502161930 20 342 1.6 8.0 0.00 0.20 0.00 61 1022.6
20260502160930 20 331 1.6 12.9 0.00 0.20 0.00 60 1022.6
20260502160430 20 346 1.6 12.9 0.00 0.20 0.00 60 1022.4
20260502151930 18 353 1.6 9.7 0.00 0.25 0.00 69 1022.4
20260502151429 18 340 3.2 9.7 0.00 0.25 0.00 69 1022.4
20260502150930 18 328 3.2 12.9 0.00 0.25 0.00 69 1022.3
20260502130430 10 0 0.0 1.6 0.00 0.56 0.00 92 1021.4
20260502123429 9 0 0.0 1.6 0.00 0.56 0.00 92 1020.9
20260502122931 9 0 0.0 1.6 0.00 0.56 0.00 92 1020.8
20260502122430 9 0 0.0 1.6 0.00 0.56 0.00 92 1020.7
20260502121930 9 0 0.0 0.0 0.00 0.56 0.00 92 1020.7
20260502120930 8 0 0.0 3.2 0.00 0.58 0.00 92 1020.5
20260502120430 8 0 0.0 3.2 0.00 0.58 0.00 92 1020.4
20260502115930 8 0 0.0 4.8 0.00 0.58 0.00 92 1020.4
20260502115430 8 0 0.0 4.8 0.00 0.58 0.00 92 1020.3
20260502114931 8 0 0.0 4.8 0.00 0.58 0.00 92 1020.3
20260502114430 8 0 0.0 3.2 0.00 0.58 0.00 92 1020.2
20260502113929 8 0 0.0 3.2 0.00 0.61 0.00 92 1020.1
20260502113430 8 0 0.0 3.2 0.00 0.61 0.00 92 1020.1
20260502112930 8 0 0.0 3.2 0.00 0.61 0.00 92 1020.0
20260502111429 8 0 0.0 4.8 0.00 0.66 0.00 92 1019.7
20260502110931 8 0 0.0 3.2 0.00 0.66 0.00 92 1019.6
20260502105930 8 0 0.0 3.2 0.00 0.69 0.00 92 1019.4
20260502104930 9 0 0.0 4.8 0.00 0.71 0.00 92 1019.2
20260502104430 9 0 0.0 4.8 0.00 0.71 0.00 92 1019.3
20260502103930 9 0 0.0 1.6 0.00 0.74 0.00 92 1019.2
20260502102930 9 0 0.0 0.0 0.00 0.76 0.00 92 1019.1
20260502102430 9 0 0.0 0.0 0.00 0.76 0.00 92 1018.9
20260502101930 9 0 0.0 0.0 0.00 0.79 0.00 92 1018.9
20260502101429 9 0 0.0 0.0 0.00 0.79 0.00 92 1018.9
20260502100930 9 0 0.0 0.0 0.00 0.79 0.00 92 1019.1
20260502100430 10 0 0.0 0.0 0.00 0.79 0.00 92 1019.1
20260502091430 10 0 0.0 0.0 0.00 0.79 0.00 91 1018.8
20260502090930 10 0 0.0 0.0 0.00 0.79 0.00 92 1018.8
20260502090431 10 0 0.0 0.0 0.00 0.79 0.00 92 1018.9
20260502071430 11 0 0.0 0.0 0.00 0.81 0.00 91 1018.9
20260502070931 11 0 0.0 0.0 0.00 0.81 0.00 91 1018.8
20260502070431 11 0 0.0 0.0 0.00 0.81 0.00 91 1018.8
20260502065930 11 0 0.0 0.0 0.00 0.81 0.00 91 1018.9
20260502065430 11 0 0.0 0.0 0.00 0.81 0.00 90 1018.9
20260502064430 11 0 0.0 0.0 0.00 0.81 0.00 90 1018.9
20260502063931 11 0 0.0 0.0 0.00 0.81 0.00 90 1019.0
20260502063430 11 0 0.0 0.0 0.00 0.81 0.00 90 1019.1
20260502062930 11 0 0.0 0.0 0.00 0.81 0.00 90 1019.0
20260502062430 11 0 0.0 0.0 0.00 0.81 0.00 90 1018.9
20260502061430 11 0 0.0 0.0 0.00 0.81 0.00 90 1019.1
20260502060930 11 0 0.0 0.0 0.00 0.81 0.00 90 1019.0
20260502060430 11 0 0.0 0.0 0.00 0.81 0.00 89 1019.0
20260502055931 11 0 0.0 0.0 0.00 0.81 0.00 89 1019.0
20260502055431 11 0 0.0 0.0 0.00 0.81 0.00 89 1019.0
20260502054430 12 0 0.0 0.0 0.00 0.81 0.00 89 1018.9
20260502053931 12 0 0.0 0.0 0.00 0.81 0.00 89 1019.0
20260502052431 12 0 0.0 0.0 0.00 0.81 0.00 89 1018.9
20260502051930 12 0 0.0 0.0 0.00 0.81 0.00 89 1018.9
20260502051430 12 0 0.0 0.0 0.00 0.81 0.00 89 1018.9
20260502050430 12 0 0.0 0.0 0.00 0.81 0.00 89 1018.8
20260502045931 12 0 0.0 0.0 0.00 0.81 0.00 89 1018.8
20260502045431 12 0 0.0 0.0 0.00 0.81 0.81 89 1018.8
20260502044931 12 0 0.0 0.0 0.00 0.81 0.81 88 1018.8
20260502044430 12 0 0.0 0.0 0.00 0.81 0.81 88 1018.8
20260502043930 12 0 0.0 0.0 0.00 0.81 0.81 88 1018.8
20260502042930 12 0 0.0 0.0 0.00 0.81 0.81 88 1018.8
20260502042430 12 0 0.0 0.0 0.00 0.81 0.81 88 1018.7
20260502041930 12 0 0.0 0.0 0.00 0.81 0.81 88 1018.6
20260502041430 12 0 0.0 0.0 0.00 0.81 0.81 88 1018.6
20260502040930 12 0 0.0 0.0 0.00 0.81 0.81 87 1018.4
20260502040430 12 0 0.0 0.0 0.00 0.81 0.81 87 1018.3
20260502035431 12 0 0.0 0.0 0.00 0.81 0.81 86 1018.2
20260502034931 12 0 0.0 0.0 0.00 0.81 0.81 86 1018.2
20260502033430 13 0 0.0 0.0 0.00 0.91 0.81 86 1018.3
20260502032930 13 0 0.0 0.0 0.00 0.91 0.81 86 1018.4
20260502032431 13 0 0.0 0.0 0.00 0.91 0.81 86 1018.4
20260502031432 13 0 0.0 0.0 0.00 0.91 0.81 85 1018.5
20260502030432 13 0 0.0 0.0 0.00 0.91 0.81 85 1018.3